FW2126 Weather Reports


Display with metric or nautical units.
time (UTC)temp
F
wind
direction
speed
MPH
gust
MPH
rain 1hr
in
rain 24hr
in
rain mn
in
humidity
%
barometer
mb
20220119200043 32 50 17.0 25.0 0.00 0.00 0.00 50 1026.5
20220119194604 31 53 15.0 27.0 0.00 0.00 0.00 51 1026.7
20220119193056 31 48 21.0 29.0 0.00 0.00 0.00 52 1026.4
20220119191543 31 40 20.0 32.0 0.00 0.00 0.00 53 1026.1
20220119190037 31 28 21.0 30.0 0.00 0.00 0.00 54 1025.6
20220119184544 31 5 22.0 29.0 0.00 0.00 0.00 56 1025.6
20220119183046 30 30 18.0 27.0 0.00 0.00 0.00 57 1025.3
20220119181606 29 38 21.0 29.0 0.00 0.00 0.00 56 1025.3
20220119180100 30 42 20.0 31.0 0.00 0.00 0.00 58 1025.4
20220119174532 28 49 20.0 34.0 0.00 0.00 0.00 59 1025.3
20220119171528 27 28 24.0 32.0 0.00 0.00 0.00 61 1025.0
20220119170010 28 39 20.0 31.0 0.00 0.00 0.00 61 1025.0
20220119163020 27 40 22.0 31.0 0.00 0.00 0.00 68 1024.1
20220119161502 27 350 19.0 32.0 0.00 0.00 0.00 70 1023.4
20220119154722 26 75 20.0 32.0 0.00 0.00 0.00 72 1023.3
20220119153212 26 47 23.0 28.0 0.00 0.00 0.00 72 1022.9
20220119151716 26 48 20.0 35.0 0.00 0.00 0.00 71 1022.6
20220119150133 26 24 19.0 35.0 0.00 0.00 0.00 73 1022.2
20220119144619 27 37 21.0 29.0 0.00 0.00 0.00 75 1021.6
20220119143129 28 42 17.0 24.0 0.00 0.00 0.00 76 1021.1
20220119141627 28 39 21.0 32.0 0.00 0.00 0.00 74 1020.8
20220119140136 28 44 22.0 34.0 0.00 0.00 0.00 73 1020.1
20220119134535 29 46 21.0 35.0 0.00 0.00 0.00 79 1019.6
20220119133046 30 44 22.0 30.0 0.00 0.00 0.00 80 1019.3
20220119131531 30 53 21.0 34.0 0.00 0.00 0.00 81 1018.8
20220119130034 31 40 22.0 35.0 0.00 0.00 0.00 81 1017.9
20220119124529 31 33 21.0 38.0 0.00 0.00 0.00 80 1017.4
20220119123019 32 27 25.0 39.0 0.00 0.00 0.00 79 1016.6
20220119121541 33 55 22.0 35.0 0.00 0.00 0.00 77 1016.2
20220119114509 34 39 16.0 30.0 0.00 0.00 0.00 71 1015.4
20220119113007 35 36 17.0 30.0 0.00 0.00 0.00 70 1015.1
20220119111506 35 42 23.0 34.0 0.00 0.00 0.00 68 1014.5
20220119110044 36 42 15.0 27.0 0.00 0.00 0.00 64 1014.4
20220119104645 36 53 21.0 29.0 0.00 0.00 0.00 63 1014.1
20220119103136 36 24 16.0 26.0 0.00 0.00 0.00 60 1013.6
20220119101646 35 34 17.0 26.0 0.00 0.00 0.00 59 1013.3
20220119100130 35 29 17.0 23.0 0.00 0.00 0.00 57 1013.4
20220119094555 35 22 15.0 24.0 0.00 0.00 0.00 56 1013.3
20220119093125 34 348 12.0 19.0 0.00 0.00 0.00 53 1012.9
20220119091548 34 34 10.0 16.0 0.00 0.00 0.00 53 1012.3
20220119090110 33 23 9.0 16.0 0.00 0.00 0.00 55 1012.2
20220119084549 33 23 8.0 12.0 0.00 0.00 0.00 53 1012.2
20220119083043 32 5 7.0 12.0 0.00 0.00 0.00 53 1011.9
20220119081622 32 5 7.0 10.0 0.00 0.00 0.00 52 1012.0
20220119080124 33 5 8.0 12.0 0.00 0.00 0.00 49 1011.8
20220119074612 33 24 8.0 11.0 0.00 0.00 0.00 46 1011.8
20220119073128 33 12 6.0 10.0 0.00 0.00 0.00 46 1011.2
20220119071603 32 12 3.0 6.0 0.00 0.00 0.00 49 1010.9
20220119070057 33 9 5.0 7.0 0.00 0.00 0.00 45 1011.0
20220119064542 33 12 5.0 8.0 0.00 0.00 0.00 43 1011.1
20220119063019 35 19 4.0 9.0 0.00 0.00 0.00 38 1011.1
20220119061525 35 20 4.0 9.0 0.00 0.00 0.00 39 1010.9
20220119060035 35 28 6.0 9.0 0.00 0.00 0.00 37 1010.7
20220119054507 36 34 6.0 9.0 0.00 0.00 0.00 37 1010.8
20220119053007 38 42 4.0 7.0 0.00 0.00 0.00 37 1010.7
20220119051505 35 55 3.0 7.0 0.00 0.00 0.00 41 1010.9
20220119050016 33 44 1.0 3.0 0.00 0.00 0.00 43 1010.7
20220119044504 34 63 2.0 4.0 0.00 0.00 0.00 40 1010.6
20220119043016 39 90 2.0 3.0 0.00 0.00 0.00 35 1010.5
20220119041503 42 90 2.0 6.0 0.00 0.00 0.00 34 1010.4
20220119040015 42 110 3.0 4.0 0.00 0.00 0.00 33 1010.3
20220119034501 40 161 3.0 4.0 0.00 0.00 0.00 33 1010.3
20220119033144 40 161 1.0 3.0 0.00 0.00 0.00 34 1010.2
20220119031655 40 161 4.0 5.0 0.00 0.00 0.00 34 1010.1
20220119030155 42 157 2.0 9.0 0.00 0.00 0.00 36 1009.9
20220119024801 43 110 3.0 4.0 0.00 0.00 0.00 34 1009.8
20220119023246 43 113 3.0 6.0 0.00 0.00 0.00 34 1009.7
20220119021708 44 114 4.0 6.0 0.00 0.00 0.00 34 1009.8
20220119020158 44 116 3.0 6.0 0.00 0.00 0.00 33 1009.7
20220119014633 46 111 5.0 6.0 0.00 0.00 0.00 32 1009.6
20220119013213 48 107 4.0 6.0 0.00 0.00 0.00 30 1009.5
20220119011629 49 105 3.0 6.0 0.00 0.00 0.00 30 1009.6
20220119010429 50 98 3.0 6.0 0.00 0.00 0.00 31 1009.3
20220119004603 51 91 3.0 6.0 0.00 0.00 0.00 31 1008.9
20220119003113 53 86 3.0 4.0 0.00 0.00 0.00 28 1008.7
20220119001620 53 106 2.0 3.0 0.00 0.00 0.00 28 1008.6
20220119000141 55 107 1.0 3.0 0.00 0.00 0.00 26 1008.5
20220118234558 58 107 2.0 6.0 0.00 0.00 0.00 23 1008.5
20220118233144 60 114 3.0 6.0 0.00 0.00 0.00 19 1008.4
20220118231640 63 101 2.0 6.0 0.00 0.00 0.00 17 1008.2
20220118230058 65 80 3.0 6.0 0.00 0.00 0.00 14 1008.3
20220118224653 68 62 1.0 8.0 0.00 0.00 0.00 14 1008.3
20220118223055 68 67 0.0 5.0 0.00 0.00 0.00 14 1008.5
20220118221623 68 93 2.0 6.0 0.00 0.00 0.00 13 1008.5
20220118220131 68 66 1.0 6.0 0.00 0.00 0.00 13 1008.2
20220118214612 69 82 3.0 9.0 0.00 0.00 0.00 13 1008.1
20220118213101 69 19 4.0 8.0 0.00 0.00 0.00 14 1008.2
20220118211618 70 36 4.0 7.0 0.00 0.00 0.00 14 1008.1
20220118210111 69 76 4.0 10.0 0.00 0.00 0.00 13 1008.2
20220118204612 69 34 6.0 11.0 0.00 0.00 0.00 14 1008.2
20220118203121 68 5 6.0 11.0 0.00 0.00 0.00 14 1008.4
20220118201546 67 317 5.0 9.0 0.00 0.00 0.00 14 1008.4